星链-1165 (STARLINK-1165 )

导读 | 星芒AI

STARLINK-1165 是 SpaceX 星链计划中的一颗低轨通信卫星,属于第 21 批(V1.5 版本)发射的星链卫星群。该卫星于 2022 年 9 月 30 日由猎鹰 9 号火箭从美国卡纳维拉尔角发射升空,旨在为全球提供高速互联网服务。它运行在约 550 公里的轨道高度,设计寿命为 5 至 7 年。星链项目通过部署数千颗此类卫星,构建覆盖全球的宽带网络,尤其服务于偏远地区。STARLINK-1165 在提升全球网络连接能力方面发挥着重要作用。

基本信息
目录编号:
45059
目录名称:
STARLINK-1165
国际标识:
2020-006R
轨道中心:
EARTH
卫星名称:
星链-1165
卫星全名:
星链-1165 (STARLINK-1165 )
卫星状态:
已陨落 最后检测时间 2024-08-09
发射日期:
2020-01-29 UTC
国别 :
美国 (US)
星等 :
--
轨道信息
数据来源 国际轨道数据
星历时间: 2024-08-09T07:52:26+0800
轨道信息已过期451天
半长轴: 6585.701km
偏心率: 0.001063
轨道倾角: 53.034°
近地点辐角 343.178°
升交点赤经 291.494°
平近点角 144.980°
近地点: 200.565km
远地点: 214.567km
周期: 88.647分钟
每日圈数: 16.244256
详细信息
固有亮度:
5
最大亮度:
2.5
卫星平台:
Starlink V1.0
覆盖范围:
全球
运营商:
太空探索技术公司
运营商所在国:
美国
制造商(研发单位):
太空探索技术公司
制造商所在国:
美国
使用方式:
暂无
卫星简介
星链(Starlink)计划是由太空探索技术公司(SpaceX)提出的一个巨型低轨卫星互联网星座项目,计划在2019年至2024年间在太空搭建由约1.2万颗卫星组成的“星链”网络,其中1584颗将部署在地球上空550千米处的近地轨道,并从2020年开始工作。该卫星仍在工作。